Concord, CA

4:35 PM PST on November 20, 2019 (GMT -0800)
Buchanan

Weather History for KCCR - October, 2019

Change the Weather History Date:

Monday, October 21, 2019

  Actual Average Record
Temperature  
Mean Temperature 70 °F 63 °F  
Max Temperature 89 °F 75 °F 89 °F (2003)
Min Temperature 51 °F 50 °F 42 °F (2007)
Degree Days  
Heating Degree Days 0    
Month to date heating degree days 31  
Since 1 July heating degree days 41  
Cooling Degree Days 5    
Month to date cooling degree days 28  
Year to date cooling degree days 1272  
Growing Degree Days 20 (Base 50)    
Moisture  
Dew Point 44 °F    
Average Humidity 48    
Maximum Humidity 77    
Minimum Humidity 18    
Precipitation  
Precipitation 0.00 in - 0.25 in (1992)
Month to date precipitation 0.00  
Year to date precipitation 15.32  
Sea Level Pressure  
Sea Level Pressure 30.09 in    
Wind  
Wind Speed 4 mph (SSE)    
Max Wind Speed 9 mph    
Max Gust Speed 13 mph    
Visibility 10 miles    
Events      
T = Trace of Precipitation, MM = Missing Value Source: NWS Daily Summary

Daily Weather History Graph

Daily Weather History Graph

Search for Another Location

Airport or City:

Astronomy

Oct. 21, 2019 Rise Set
Actual Time 7:22 AM PDT 6:22 PM PDT
Civil Twilight 6:55 AM PDT 6:49 PM PDT
Nautical Twilight 6:25 AM PDT 7:19 PM PDT
Astronomical Twilight 5:54 AM PDT 7:50 PM PDT
Moon No Moon Rise 2:41 PM PDT
Length of Visible Light 11h 53m
Length of Day
11h 00m
Waning Gibbous, 47% of the Moon is Illuminated
Oct 21
Waning Gibbous
Oct 27
New
Nov 4
First Quarter
Nov 12
Full
Nov 19
Last Quarter

Hourly Weather History & Observations

Time (PDT) Temp. Dew Point Humidity Pressure Visibility Wind Dir Wind Speed Gust Speed Precip Events Conditions
12:53 AM 57.9 °F 45.0 °F 62% 30.08 in 10.0 mi South 3.5 mph - N/A   Clear
1:53 AM 57.0 °F 46.0 °F 67% 30.09 in 10.0 mi South 4.6 mph - N/A   Clear
2:53 AM 55.9 °F 46.0 °F 69% 30.09 in 10.0 mi SSE 3.5 mph - N/A   Clear
3:53 AM 55.0 °F 45.0 °F 69% 30.09 in 10.0 mi SSE 4.6 mph - N/A   Clear
4:53 AM 54.0 °F 45.0 °F 72% 30.09 in 10.0 mi SSW 3.5 mph - N/A   Clear
5:53 AM 53.1 °F 45.0 °F 74% 30.09 in 10.0 mi SSE 3.5 mph - N/A   Clear
6:53 AM 51.1 °F 44.1 °F 77% 30.11 in 10.0 mi Calm Calm - N/A   Clear
7:53 AM 53.1 °F 45.0 °F 74% 30.12 in 10.0 mi South 5.8 mph - N/A   Clear
8:53 AM 59.0 °F 46.0 °F 62% 30.13 in 10.0 mi South 5.8 mph - N/A   Clear
9:53 AM 66.0 °F 48.0 °F 52% 30.14 in 10.0 mi SSE 3.5 mph - N/A   Clear
10:53 AM 73.9 °F 46.9 °F 38% 30.14 in 10.0 mi Variable 5.8 mph - N/A   Clear
11:53 AM 78.1 °F 44.1 °F 30% 30.13 in 10.0 mi WNW 5.8 mph - N/A   Clear
12:53 PM 82.0 °F 43.0 °F 25% 30.11 in 10.0 mi Calm Calm - N/A   Clear
1:53 PM 86.0 °F 41.0 °F 20% 30.09 in 10.0 mi NE 9.2 mph - N/A   Clear
2:53 PM 87.1 °F 39.9 °F 19% 30.06 in 10.0 mi NE 5.8 mph - N/A   Clear
3:53 PM 88.0 °F 39.9 °F 18% 30.06 in 10.0 mi Variable 3.5 mph - N/A   Clear
4:53 PM 89.1 °F 41.0 °F 19% 30.05 in 10.0 mi NNW 4.6 mph - N/A   Clear
5:53 PM 86.0 °F 39.0 °F 19% 30.05 in 10.0 mi North 5.8 mph - N/A   Clear
6:53 PM 80.1 °F 41.0 °F 25% 30.06 in 10.0 mi Calm Calm - N/A   Clear
7:53 PM 73.0 °F 41.0 °F 31% 30.08 in 10.0 mi Calm Calm - N/A   Clear
8:53 PM 68.0 °F 43.0 °F 40% 30.09 in 10.0 mi Calm Calm - N/A   Clear
9:53 PM 66.0 °F 44.1 °F 45% 30.10 in 10.0 mi SE 4.6 mph - N/A   Clear
10:53 PM 62.1 °F 44.1 °F 52% 30.11 in 10.0 mi Calm Calm - N/A   Clear
11:53 PM 61.0 °F 43.0 °F 52% 30.12 in 10.0 mi SSE 3.5 mph - N/A   Clear